Home > Weather > Augusta > Past weeks

Flag for USA Past Weather in Augusta, Georgia, USA — Yesterday and Last 2 Weeks

Now
83 °F

Clear.


Feels Like: 88 °F
Forecast: 78 / 97 °F
Wind: 3 mph from North

Location: Daniel Field

Current Time: Jul 27, 2016 at 3:58:46 AM

Latest Report: Jul 27, 2016 at 2:53 AM


Visibility: 10 mi

Pressure: 30.02 "Hg

Humidity: 68%

Dew Point: 71 °F

Location of AugustaLocation

Past Weather in Augusta — Graph

°F

Augusta Temperature Yesterday

Maximum temperature yesterday: 99 °F (at 3:53 PM)
Minimum temperature yesterday: 77 °F (at 5:53 AM)
Average temperature yesterday: 88 °F

High & Low Weather Summary for the Past Weeks

 TemperatureHumidityPressure
High99 °F (Jul 13, 4:53 PM)94% (Jul 16, 4:53 AM)30.27 "Hg (Jul 16, 4:53 AM)
Low73 °F (Jul 17, 3:53 AM)29% (Jul 13, 5:53 PM)29.94 "Hg (Jul 15, 5:53 PM)
Average85 °F63%30.08 "Hg
* Reported Jul 12 1:53 AM — Jul 27 1:53 AM, Augusta, Weather by CustomWeather, © 2016

Note: Actual official high and low records may vary slightly from our data, if they occured in-between our weather recording intervals... More about our weather records

Advertising

Augusta Weather History for the Previous 24 Hours

Scroll right to see more
 ConditionsComfort  
Time TempWeatherWind HumidityBarometerVisibility
1:53 AM
Wed, Jul 27
84 °FClear.5 mph63%30.02 "Hg10 mi
12:53 AM85 °FClear.No wind61%30.03 "Hg10 mi
11:53 PM
Tue, Jul 26
86 °FClear.6 mph57%30.02 "Hg10 mi
10:53 PM88 °FClear.7 mph54%30.01 "Hg10 mi
9:53 PM89 °FClear.6 mph53%29.99 "Hg10 mi
8:53 PM91 °FSunny.8 mph50%29.97 "Hg10 mi
7:53 PM94 °FSunny.12 mph44%29.96 "Hg10 mi
6:53 PM98 °FSunny.7 mph31%29.95 "Hg10 mi
5:53 PM99 °FSunny.12 mph32%29.96 "Hg10 mi
4:53 PM98 °FSunny.N/A34%29.97 "Hg10 mi
3:53 PM99 °FPassing clouds.13 mph34%29.98 "Hg10 mi
2:53 PM98 °FPassing clouds.15 mph36%29.99 "Hg10 mi
1:53 PM96 °FPassing clouds.N/A38%30.01 "Hg10 mi
12:53 PM95 °FScattered clouds.6 mph41%30.03 "Hg10 mi
11:53 AM93 °FSunny.9 mph46%30.05 "Hg10 mi
10:53 AM91 °FSunny.6 mph50%30.06 "Hg10 mi
9:53 AM87 °FPassing clouds.5 mph61%30.05 "Hg10 mi
8:53 AM83 °FSunny.3 mph68%30.06 "Hg10 mi
7:53 AM79 °FSunny.5 mph74%30.04 "Hg10 mi
6:53 AM77 °FClear.3 mph79%30.03 "Hg10 mi
5:53 AM77 °FClear.No wind79%30.01 "Hg10 mi
4:53 AM78 °FClear.6 mph76%30.01 "Hg10 mi
3:53 AM79 °FClear.7 mph74%30.02 "Hg10 mi
Weather by CustomWeather, © 2016

See weather overviewHow to use our weather pages